Dewpoint
29 28 28 31 34 34 32 33 33 39 48 51 52 51 51 55 55 55 56 54 53 54 56 59 61 61 61 63 65 67 68 70 68 66 65 64 69 69 68 68 70 72 72 71
27 27 27 28 30 32 33 33 31 39 49 51 49 50 52 53 55 55 54 54 54 53 55 58 61 61 61 64 66 67 69 71 70 67 70 71 68 67 66 65 71 71 72 71
23 23 25 27 28 30 31 30 27 27 41 49 50 47 49 53 53 53 55 55 55 55 54 58 61 61 62 64 66 67 69 70 71 71 73 70 70 74 71 66 68 70 71 70
23 23 25 26 25 28 28 28 24 25 41 35 46 35 40 46 52 53 52 53 54 54 56 57 59 60 61 63 65 67 69 70 71 72 73 72 67 63 62 64 65 68 71 71
22 22 23 23 24 24 25 32 31 34 38 38 39 38 38 47 46 50 53 53 53 53 53 55 59 60 61 62 63 66 68 70 70 72 73 74 69 64 64 64 72 71 73 72
19 19 16 17 24 24 23 34 39 40 37 29 33 33 30 35 41 45 48 52 53 52 53 55 57 60 61 62 63 64 68 70 71 71 72 72 71 68 65 66 66 65 67 68
18 15 16 18 17 22 26 25 24 26 29 21 32 31 33 33 39 44 45 48 53 53 52 55 57 60 64 62 63 63 68 70 71 71 71 71 72 70 70 68 64 65 63 64
16 11 12 16 19 22 23 20 19 21 18 21 32 27 29 35 40 46 48 48 52 53 53 55 58 60 62 64 64 64 67 70 70 70 71 72 74 67 71 68 64 63 62 63
17 16 13 14 18 21 21 24 17 14 16 17 21 25 30 34 40 44 47 49 52 53 53 54 57 59 61 62 63 65 67 70 70 69 71 72 73 72 68 70 70 66 68 65
21 21 17 13 17 18 20 20 16 15 19 21 19 28 30 34 42 46 46 48 53 54 55 55 57 59 61 64 64 65 68 69 69 68 69 69 71 72 71 71 71 71 70 71
21 22 21 18 17 19 20 18 18 14 17 18 19 26 30 34 43 45 47 52 54 54 56 57 57 61 63 64 64 64 65 66 67 68 68 69 69 70 71 70 71 72 72 73
25 21 22 19 16 17 18 20 18 19 24 21 21 24 33 41 45 47 49 52 54 57 57 58 59 60 63 65 65 65 66 67 68 69 70 69 70 70 69 70 70 72 72 73
25 23 21 21 17 20 18 19 16 17 16 25 20 23 44 44 46 49 48 54 59 59 59 59 60 61 64 65 67 68 68 69 69 70 69 70 70 70 70 70 72 72 72 73
34 20 24 17 21 18 20 18 19 16 18 20 22 25 29 40 44 49 51 53 58 60 61 61 61 63 65 66 67 68 68 69 68 69 69 71 71 72 71 71 72 72 74 73
28 25 26 23 21 19 18 19 18 19 21 21 21 24 27 31 42 49 52 53 57 59 61 62 61 64 66 66 68 68 67 68 68 70 69 71 73 72 73 73 74 73 73 73
34 28 28 28 25 22 20 19 20 21 20 22 22 25 30 40 50 52 52 53 57 59 60 61 63 65 65 66 68 68 68 68 70 70 70 71 72 73 73 73 72 73 73 73
40 33 30 28 25 27 26 24 22 24 22 24 24 29 35 46 51 55 55 51 54 57 59 61 63 64 65 65 68 68 69 69 70 70 71 71 72 72 73 72 71 71 72 72
41 41 35 28 29 28 26 32 29 26 25 25 25 28 38 39 47 52 54 51 52 55 59 61 60 61 63 63 65 68 69 70 70 70 70 71 72 72 72 72 72 72 72 72
40 41 35 29 26 30 27 32 32 33 30 29 31 30 36 43 46 52 53 51 50 57 60 61 59 61 63 65 68 70 70 70 71 71 72 72 72 72 72 71 71 71 71 71
38 41 37 33 28 28 32 36 36 36 33 36 37 37 40 46 41 45 54 51 51 57 60 59 64 66 66 69 69 70 70 70 70 71 71 71 71 70 69 69 70 70 70 70
37 39 38 35 32 29 36 37 35 34 38 43 41 42 41 46 41 49 55 54 56 58 61 63 64 63 65 67 68 67 68 67 68 69 69 70 70 69 69 70 70 69 69 68
42 41 35 36 35 31 35 35 35 41 47 48 49 48 49 49 53 53 55 56 58 61 62 64 62 63 66 68 68 66 65 68 70 70 69 70 71 67 66 70 70 69 69 69
43 43 44 43 37 48 49 49 51 51 50 51 53 51 52 51 51 52 55 58 60 62 63 63 64 65 67 68 68 66 70 71 70 69 69 70 70 69 69 69 69 66 66 64
46 50 43 45 47 49 49 50 51 52 51 51 52 52 52 51 51 54 56 59 61 62 63 64 65 66 67 69 69 68 71 71 70 69 70 70 69 68 68 65 62 61 60 59
50 49 47 47 48 50 49 48 50 48 48 49 51 53 54 53 52 55 58 61 62 64 64 65 65 65 65 66 65 65 67 68 67 67 67 67 65 66 64 65 63 60 63 60
45 47 48 48 49 49 50 50 48 48 47 47 50 52 54 55 54 56 60 62 64 64 66 66 64 63 64 64 64 65 67 67 65 64 63 61 60 60 60 59 60 52 52 51
Lifted_Index
6 5 4 3 3 2 1 1 0 -1 -2 -3 -3 -2 -2 -2 -2 -1 -1 -1 -1 -1 -1 -2 -2 -2 -1 -1 -1 -2 -2 -2 -2 -1 -1 -1 -1 -1 -2 -2 -3 -4 -4 -4
6 5 5 4 3 2 1 0 0 -0 -2 -2 -3 -3 -3 -3 -2 -2 -2 -1 -1 -1 -1 -2 -2 -2 -2 -1 -1 -2 -2 -3 -3 -2 -2 -2 -2 -2 -2 -3 -3 -4 -4 -4
6 6 5 5 4 2 1 1 1 1 -1 -2 -3 -3 -3 -3 -3 -3 -2 -2 -2 -2 -2 -2 -2 -2 -2 -2 -2 -2 -2 -3 -3 -3 -3 -3 -3 -3 -3 -3 -3 -4 -4 -4
6 6 6 5 4 3 2 2 2 1 -1 -2 -2 -2 -2 -3 -3 -3 -3 -2 -2 -2 -2 -2 -2 -2 -2 -2 -2 -2 -2 -3 -3 -3 -3 -3 -3 -2 -2 -3 -3 -4 -4 -5
6 6 6 5 4 4 3 2 1 -0 -1 -2 -2 -2 -2 -2 -3 -3 -3 -3 -2 -2 -1 -1 -2 -2 -2 -2 -2 -2 -2 -2 -3 -3 -3 -3 -3 -2 -2 -3 -3 -4 -4 -4
6 6 6 6 5 4 3 1 -0 -1 -1 -1 -1 -1 -2 -2 -2 -2 -3 -3 -2 -1 -1 -1 -2 -2 -2 -2 -2 -2 -2 -3 -3 -3 -4 -3 -3 -3 -3 -3 -3 -3 -3 -3
6 6 6 6 5 4 3 1 -1 -1 -1 -1 -1 -1 -1 -1 -2 -2 -2 -3 -2 -2 -1 -1 -2 -2 -2 -2 -2 -3 -3 -3 -3 -3 -4 -4 -4 -3 -3 -3 -2 -2 -2 -2
4 4 5 5 5 3 2 1 -0 -1 -1 -1 -1 -1 -1 -1 -2 -2 -2 -2 -3 -2 -1 -1 -2 -2 -2 -2 -2 -3 -3 -4 -4 -4 -4 -4 -4 -4 -3 -3 -3 -2 -2 -2
3 4 4 4 4 3 2 1 -0 -1 -1 -1 -1 -1 -1 -1 -2 -2 -2 -2 -3 -2 -2 -2 -2 -2 -2 -2 -2 -3 -3 -4 -4 -4 -4 -5 -5 -4 -4 -4 -4 -3 -3 -3
3 3 3 4 4 3 2 1 0 -0 -1 -1 -1 -0 -0 -1 -2 -2 -2 -3 -3 -2 -2 -2 -2 -2 -3 -2 -2 -3 -3 -3 -4 -4 -4 -4 -5 -5 -5 -5 -4 -4 -4 -4
3 3 3 3 3 3 2 1 0 -0 -1 -1 -1 -0 -1 -1 -2 -3 -3 -3 -3 -3 -2 -2 -3 -3 -3 -3 -3 -3 -3 -3 -4 -4 -4 -4 -4 -5 -5 -5 -5 -5 -5 -5
2 2 2 2 2 2 2 1 0 -0 -1 -1 -0 -1 -1 -2 -3 -3 -3 -3 -3 -3 -3 -3 -3 -3 -3 -3 -3 -3 -4 -4 -4 -4 -4 -4 -4 -4 -5 -5 -5 -5 -5 -5
2 2 1 1 1 2 2 1 0 -0 -1 -1 -0 -1 -1 -3 -3 -4 -4 -4 -4 -4 -4 -4 -4 -4 -4 -4 -4 -4 -4 -4 -5 -5 -5 -5 -5 -4 -4 -4 -5 -5 -5 -5
2 2 1 0 0 1 1 1 0 -0 -1 -1 -1 -1 -1 -2 -3 -4 -4 -4 -5 -5 -5 -4 -4 -4 -4 -4 -4 -4 -4 -4 -5 -5 -5 -5 -5 -5 -5 -5 -5 -5 -5 -5
2 2 1 1 0 0 0 -0 -0 -0 -0 -1 -1 -0 -1 -2 -3 -4 -4 -4 -5 -5 -5 -5 -5 -5 -5 -5 -5 -4 -4 -4 -5 -5 -5 -5 -5 -5 -5 -5 -5 -6 -5 -5
1 1 1 1 0 0 -0 -0 -0 -0 -0 -0 -0 -0 -1 -2 -4 -4 -4 -4 -4 -5 -5 -5 -5 -5 -5 -5 -5 -5 -5 -5 -5 -5 -5 -5 -5 -5 -5 -5 -5 -5 -5 -5
0 0 1 1 0 -0 -0 -0 -0 -0 -0 -0 -0 -1 -1 -3 -4 -5 -4 -4 -4 -4 -4 -5 -5 -5 -5 -5 -5 -5 -5 -5 -5 -4 -5 -5 -5 -5 -5 -4 -4 -4 -4 -4
-1 -1 -0 -0 -0 -0 -1 -1 -0 -0 0 0 -0 -1 -1 -3 -4 -5 -5 -4 -3 -3 -4 -4 -4 -4 -4 -4 -5 -5 -5 -5 -5 -5 -5 -5 -5 -5 -4 -4 -4 -4 -4 -4
-0 -1 -1 -1 -1 -1 -1 -1 -0 -0 0 0 -0 -1 -2 -2 -3 -5 -5 -4 -3 -3 -4 -4 -4 -4 -4 -4 -5 -5 -5 -5 -5 -5 -5 -5 -4 -4 -4 -3 -3 -3 -3 -3
-1 -0 -0 -0 -1 -1 -1 -0 -0 -0 -1 -1 -1 -1 -2 -3 -3 -4 -5 -5 -4 -4 -4 -4 -4 -4 -5 -5 -5 -5 -5 -4 -4 -4 -4 -4 -3 -3 -3 -3 -2 -2 -2 -2
-1 -0 0 0 -0 -1 -1 -0 -0 -1 -1 -1 -1 -2 -2 -3 -3 -4 -6 -6 -5 -5 -5 -5 -5 -5 -5 -5 -5 -4 -4 -3 -3 -3 -3 -3 -3 -2 -2 -2 -2 -2 -2 -2
-1 -1 -0 -0 -1 -1 -1 -1 -1 -1 -2 -2 -2 -2 -3 -3 -4 -5 -6 -6 -6 -6 -6 -6 -5 -5 -5 -5 -4 -3 -3 -3 -4 -3 -3 -3 -3 -2 -2 -2 -2 -2 -2 -2
-1 -1 -1 -1 -2 -2 -2 -2 -2 -2 -2 -3 -3 -3 -3 -3 -4 -5 -6 -6 -7 -7 -7 -6 -6 -6 -6 -6 -5 -4 -4 -4 -4 -4 -4 -3 -3 -2 -2 -1 -1 -1 -1 -1
-2 -2 -1 -2 -2 -2 -2 -2 -2 -2 -2 -2 -2 -2 -3 -3 -4 -5 -6 -7 -7 -7 -7 -7 -7 -6 -6 -6 -5 -5 -5 -5 -4 -4 -4 -3 -3 -2 -2 -1 -0 0 0 0
-2 -2 -1 -1 -2 -2 -2 -1 -1 -0 -0 -0 -1 -2 -3 -3 -4 -6 -7 -7 -7 -7 -7 -7 -7 -6 -5 -5 -4 -4 -4 -4 -4 -3 -3 -3 -2 -1 -1 -0 0 1 1 1
-2 -2 -1 -1 -1 -2 -2 -1 0 1 1 1 -0 -1 -2 -3 -4 -6 -7 -7 -7 -8 -8 -7 -6 -5 -4 -4 -3 -3 -3 -3 -3 -3 -2 -2 -1 -0 0 0 1 1 1 2